{"data":{"norad_id":60047,"epoch":"2026-09-21T14:25:59.133504Z","epoch_age_seconds":83037,"freshness":"FRESH","line1":"1 60047U 24112K   26264.60137886 -.00001214  00000+0 -51623-5 0  9997","line2":"2 60047  53.1584  20.3140 0001086  63.4337 296.6792 15.69700361131752","mean_motion":15.69700361,"eccentricity":0.0001086,"inclination_deg":53.1584,"raan_deg":20.314,"arg_perigee_deg":63.4337,"mean_anomaly_deg":296.6792,"bstar":-5.1623e-6,"rev_number":13175,"period_min":91.737253540709,"perigee_km":359.02259869048,"apogee_km":360.48606868815,"semimajor_km":6737.8913336893,"source":"CELESTRAK","updated_at":"2026-09-22T09:00:49.143640Z"}}